Theta_e
321 322 322 321 321 322 321 322 322 322 323 323 323 323 323 323 323 323 323 323 323 323 323 323 323 323 323 323 323 323 321 322 327 327 328 328 338 352 356 358 354 357 361 345 335 335 333 331 330 335 334 332 331 328 333 329 330 327 318 315 312 313 313 319 320 321 324 322 325 327 327 325 323 328 331 336 334 332 332 331 332 333 336 339 340 343 345 347
321 321 321 321 321 321 321 322 321 321 322 322 322 322 323 322 323 323 322 323 323 323 323 323 323 323 323 322 322 322 321 323 323 323 322 340 348 359 359 361 356 357 359 336 331 332 330 326 328 332 331 327 330 326 328 325 328 321 317 315 311 315 317 321 322 324 324 322 327 326 330 328 326 329 333 329 329 329 328 331 333 333 337 339 341 343 343 345
321 321 321 321 320 320 321 321 321 321 321 322 322 322 322 322 322 322 322 322 322 322 322 322 323 323 323 322 323 322 322 325 327 323 325 346 357 353 357 358 356 357 341 329 330 332 329 328 329 329 329 326 325 322 324 322 323 321 317 312 314 320 322 325 326 325 326 327 324 327 327 327 328 331 334 328 328 330 328 328 331 331 331 336 339 341 342 344
320 320 320 320 320 320 320 321 321 321 321 321 321 321 322 322 321 321 321 321 322 322 322 322 322 322 322 322 322 323 323 325 320 320 326 352 351 353 355 355 358 354 339 331 332 332 330 329 328 329 327 323 323 325 320 322 319 320 318 315 317 320 318 322 325 325 327 329 326 325 327 325 329 326 331 326 323 327 330 332 332 331 333 335 338 339 341 342
320 320 320 320 320 320 320 320 320 320 321 321 321 321 321 321 321 321 320 321 321 322 321 322 322 322 322 322 320 324 325 313 312 333 339 353 351 351 353 354 357 342 336 331 331 334 328 326 326 327 326 321 322 321 321 322 323 321 318 321 321 321 321 325 326 327 326 327 325 326 325 325 331 330 330 328 326 323 330 333 336 335 336 336 336 338 340 340
319 319 319 319 319 320 320 320 320 320 320 320 320 320 320 320 320 320 320 321 321 321 321 321 322 322 322 322 322 326 322 305 322 333 363 355 352 352 353 354 356 342 334 329 330 332 325 324 324 322 322 321 319 315 320 320 321 314 319 322 324 324 323 325 324 324 325 327 326 325 327 331 330 327 331 329 326 330 337 336 337 337 338 338 338 338 338 339
319 319 318 319 319 319 319 319 319 319 319 319 320 319 320 320 319 319 320 321 321 321 321 322 322 323 323 322 324 322 320 318 322 337 358 357 354 353 354 359 358 342 333 328 330 328 323 321 322 321 322 321 319 318 319 319 321 321 316 321 320 324 323 325 325 327 326 325 325 328 331 328 328 326 333 332 336 336 337 337 338 338 338 338 336 338 337 338
318 318 318 319 319 319 319 318 319 319 319 319 319 319 319 319 319 319 321 322 322 321 321 322 322 323 323 322 325 322 317 316 324 339 360 356 350 350 350 336 333 330 329 328 327 325 322 319 320 325 321 318 317 317 319 318 320 318 319 322 323 324 324 326 325 325 325 325 327 330 326 326 328 328 331 330 334 335 337 337 337 337 337 337 337 337 338 339
317 318 318 318 318 318 318 318 319 318 318 319 318 318 318 318 318 319 322 322 322 322 322 322 322 323 323 323 322 317 317 326 336 338 346 334 332 340 331 327 329 325 326 328 328 326 321 320 322 325 318 317 319 318 318 317 315 321 320 322 323 323 326 324 324 326 326 328 329 326 324 326 329 332 329 331 333 335 336 336 336 336 336 335 337 338 339 340
317 317 317 318 318 318 318 318 318 318 318 318 318 317 317 317 318 319 322 322 322 322 322 323 323 322 323 325 317 310 324 336 335 337 335 326 327 330 330 326 326 325 324 326 327 325 321 322 324 327 324 321 320 317 319 317 317 323 321 322 322 324 324 325 324 324 325 326 328 324 323 324 328 327 324 333 334 335 335 335 336 335 334 336 337 338 339 340
317 317 317 317 317 317 317 318 318 318 318 318 317 317 317 317 317 319 322 323 322 322 323 323 323 322 320 322 314 310 332 332 337 335 328 326 324 327 327 326 326 325 325 325 325 326 324 325 329 327 323 319 319 317 316 319 324 322 323 323 322 323 325 326 325 323 325 324 327 326 324 327 327 327 325 330 335 336 333 333 334 335 335 336 338 339 342 343
316 317 317 317 317 317 317 317 317 318 318 317 317 316 317 317 317 319 322 324 323 323 323 324 323 323 323 321 318 317 331 332 333 335 332 325 323 326 327 329 327 326 324 322 323 325 325 326 328 325 316 322 314 318 318 324 323 322 323 318 319 323 322 323 322 324 324 322 327 328 323 320 324 321 328 333 335 336 334 332 334 335 335 338 340 340 342 342
316 316 316 316 317 316 317 317 317 317 317 316 316 315 316 316 317 319 323 323 324 323 323 324 324 326 325 319 317 326 331 334 332 332 333 329 324 326 326 328 327 327 325 324 323 324 325 326 328 323 324 319 318 313 320 324 323 324 322 319 318 319 318 324 326 325 323 324 326 326 312 317 321 325 328 332 335 333 333 333 334 334 336 337 339 339 342 343
316 316 316 316 316 316 316 317 316 316 316 316 315 315 315 315 317 321 324 323 324 324 323 324 325 327 326 323 333 328 327 334 333 331 332 331 324 322 324 326 327 326 326 325 325 326 326 329 328 325 326 320 317 325 320 320 323 317 319 320 316 314 314 323 324 323 321 325 327 325 313 315 322 326 328 330 334 334 332 333 334 335 335 337 337 338 341 341
316 316 316 316 316 316 315 316 316 315 315 315 315 315 315 315 319 322 325 324 325 325 324 325 326 326 321 318 330 332 370 335 332 328 331 329 324 320 321 324 324 324 325 325 324 324 326 328 327 321 318 323 322 318 316 318 318 319 315 311 317 314 315 320 325 323 319 324 328 322 314 316 321 325 330 330 330 333 332 333 334 334 335 335 336 337 339 340
315 315 315 315 315 316 315 315 315 315 315 314 314 314 316 317 320 323 326 327 328 325 326 325 328 326 322 318 327 350 328 320 325 328 330 330 325 320 321 322 324 324 324 323 325 324 327 328 322 321 319 321 318 315 315 315 314 317 315 312 313 314 315 317 321 324 325 324 325 322 314 318 320 326 329 331 330 330 330 331 334 335 335 337 336 338 341 340
315 315 314 315 316 315 315 314 314 315 313 313 313 315 317 319 321 326 327 327 327 327 327 326 333 330 318 327 331 322 320 321 328 327 329 330 326 323 321 322 321 321 322 323 325 327 325 323 324 321 320 316 317 315 312 309 309 313 315 312 315 313 315 314 320 322 325 321 319 321 318 319 321 326 328 329 330 329 328 329 334 335 334 337 339 337 341 341
314 314 314 315 315 315 315 314 314 314 313 312 313 314 315 320 322 323 327 326 329 329 327 329 328 324 319 326 319 322 323 322 325 326 328 329 327 324 322 320 320 320 320 319 323 322 324 319 321 313 315 315 314 313 309 305 309 310 311 310 312 315 315 315 315 318 323 322 319 319 319 320 321 325 326 329 330 328 327 328 332 333 335 338 336 338 341 343
315 314 314 314 314 314 314 314 313 313 313 313 314 319 320 320 323 328 328 329 324 327 316 319 320 309 308 317 323 326 321 324 327 326 323 324 325 324 322 322 320 317 314 314 318 320 321 318 318 313 309 311 311 312 311 314 315 313 313 312 313 311 313 315 319 322 323 318 317 318 315 319 320 322 326 327 330 328 327 330 329 330 332 336 336 337 339 339
314 314 314 314 314 314 314 313 313 312 311 312 315 320 326 329 327 325 329 329 324 322 321 322 322 322 322 321 321 326 326 329 321 323 324 325 323 320 318 319 316 317 314 311 317 317 320 312 309 308 311 312 314 315 315 318 317 316 315 314 313 313 314 320 321 322 323 319 316 318 319 320 320 322 324 326 329 327 326 327 328 330 330 330 336 339 340 339
314 314 314 314 314 313 313 312 312 312 311 312 314 317 313 317 315 314 318 322 330 330 326 323 323 322 320 323 322 322 319 321 324 322 323 327 324 318 314 315 313 311 313 315 315 319 319 310 310 312 314 314 314 316 316 316 317 314 313 312 312 313 312 317 317 322 323 318 316 320 319 320 321 322 323 326 326 325 324 326 328 328 330 331 335 337 337 341
314 313 313 313 313 313 312 312 311 311 311 314 317 313 316 319 324 325 322 313 320 322 324 326 326 321 325 325 324 325 324 318 318 320 324 324 322 314 313 313 312 309 314 314 316 313 311 309 312 315 316 317 316 316 316 315 314 315 312 311 311 311 315 317 318 322 322 318 317 319 318 319 322 322 324 324 324 327 326 326 327 329 329 333 333 337 338 336
313 313 313 313 312 312 311 311 310 310 314 321 319 319 318 325 328 328 325 318 315 322 321 322 321 320 321 325 326 327 319 316 313 318 320 321 319 316 314 311 311 311 313 313 310 310 307 311 314 317 316 315 314 315 315 314 315 312 311 311 308 313 311 309 316 319 321 317 315 319 316 322 322 324 324 325 324 327 328 328 328 329 329 331 332 335 337 335
313 314 313 312 312 311 311 310 309 315 318 322 320 321 326 326 324 327 321 314 312 317 320 323 323 321 320 320 325 323 318 318 317 315 323 319 316 318 314 312 311 311 310 312 313 311 310 314 317 317 316 314 313 313 312 311 310 312 312 311 310 311 313 313 314 317 319 319 319 318 316 317 320 319 321 325 325 325 326 328 328 330 331 332 333 335 337 336
313 313 313 312 311 310 309 308 316 321 318 319 318 322 325 326 331 329 320 316 316 315 323 322 325 322 323 329 327 319 319 319 319 320 322 319 317 315 313 316 313 309 311 312 313 312 312 317 318 315 314 314 313 311 311 311 309 310 312 312 313 314 313 314 317 315 312 311 315 315 307 309 320 319 320 324 323 323 325 326 326 331 330 331 331 333 336 337
313 313 313 312 312 310 309 312 321 314 314 313 318 323 329 330 330 331 319 312 306 312 319 311 325 316 327 320 323 321 320 313 320 321 322 321 323 317 316 313 315 309 312 312 311 313 314 318 317 314 314 313 312 311 313 313 309 308 309 314 313 314 313 314 314 313 308 305 313 316 307 305 318 316 319 328 324 322 324 325 324 330 333 331 331 333 334 335
313 312 312 311 311 309 308 308 315 316 310 314 319 321 324 325 335 325 316 308 304 313 311 317 317 317 323 321 322 321 305 309 321 323 321 323 318 323 314 312 314 315 316 315 311 308 316 316 315 315 313 312 311 309 313 313 309 307 314 314 314 313 312 313 313 312 310 315 315 315 312 306 310 318 324 327 322 324 323 323 324 326 330 329 331 330 335 334
312 312 311 311 310 309 309 311 313 313 312 315 319 320 322 327 328 323 313 297 298 316 311 314 317 324 320 322 323 315 315 318 312 317 323 322 321 318 314 312 311 312 314 313 304 312 315 314 315 312 312 311 310 312 314 315 310 310 315 315 313 313 313 312 312 311 311 310 306 311 314 307 307 317 323 325 321 322 322 322 324 327 328 330 331 330 334 334
312 312 312 311 310 308 312 312 316 314 318 320 321 322 323 326 321 313 308 300 312 313 324 313 324 320 318 322 318 318 316 318 311 317 323 323 322 319 311 314 315 314 315 314 308 312 315 316 316 314 312 310 314 315 315 315 310 314 317 317 316 315 314 313 310 310 311 309 304 309 311 305 306 319 319 324 321 318 319 323 325 327 328 330 331 332 332 335
312 311 311 311 310 315 321 321 317 320 322 323 323 327 326 321 313 305 302 296 316 306 315 314 313 312 317 315 315 317 313 315 317 318 320 317 319 321 319 322 316 313 312 315 313 315 316 319 320 316 312 314 315 316 316 315 315 317 316 314 313 312 312 312 311 310 309 302 306 309 311 309 303 311 315 313 315 319 321 323 326 329 328 329 332 332 332 335
311 310 310 310 308 313 313 309 312 318 323 327 325 321 320 315 305 303 297 306 313 312 316 312 311 317 313 312 310 315 313 314 314 316 313 317 315 317 317 314 318 313 312 312 311 314 315 315 314 316 318 317 317 314 317 317 316 315 313 312 311 313 312 311 309 310 302 301 309 311 311 312 302 308 314 320 321 322 323 321 323 324 327 329 332 331 332 336
309 308 310 310 311 313 308 308 315 316 316 319 316 312 312 302 307 299 301 317 302 308 310 310 314 313 312 314 312 311 309 312 314 313 311 310 310 310 311 308 310 304 304 306 306 312 310 311 314 316 320 316 314 312 312 314 314 313 312 311 305 304 304 300 304 300 300 300 309 312 312 308 307 312 316 318 323 325 323 323 324 326 328 329 330 332 333 337
308 307 308 310 313 312 313 315 317 319 318 318 313 310 306 300 295 304 305 311 303 311 310 315 312 312 312 311 310 311 313 308 314 313 313 312 310 310 313 312 313 309 302 307 307 306 307 314 314 315 316 317 315 308 308 309 313 311 309 309 305 300 299 296 301 303 303 307 311 309 312 305 311 313 319 317 320 321 323 324 324 328 328 329 331 333 332 333
307 307 310 315 316 318 320 322 321 321 319 321 311 306 304 297 297 314 308 309 309 313 314 312 313 312 312 308 310 311 307 312 312 312 312 310 309 307 309 313 314 310 309 308 304 305 301 303 309 312 308 316 314 313 313 311 311 311 313 310 307 305 302 297 299 298 300 303 308 312 307 305 305 309 319 320 323 323 323 323 329 330 331 333 331 333 333 334
306 308 314 318 319 320 321 322 324 324 322 314 305 302 297 298 304 304 307 310 312 315 312 315 311 310 309 310 312 312 311 308 313 312 310 309 305 307 307 308 313 313 311 305 307 308 306 306 312 316 315 316 313 317 318 314 312 313 313 312 308 307 312 302 305 303 303 303 303 308 306 312 312 319 321 322 320 324 324 324 325 330 327 331 333 333 333 334
308 318 320 317 317 324 327 324 324 323 320 309 302 299 298 303 302 308 309 316 314 311 311 312 312 307 307 308 312 310 314 310 311 311 309 309 309 307 311 311 310 312 309 306 309 305 307 305 314 315 317 315 315 317 317 317 304 310 311 306 309 315 312 308 309 309 308 305 302 312 309 311 316 317 319 320 319 320 321 321 321 325 325 333 334 337 337 336
313 316 315 317 318 322 324 329 326 322 318 307 301 298 305 307 310 311 315 313 314 314 312 305 307 306 305 305 307 309 310 311 310 309 306 310 307 310 310 312 313 313 313 313 309 313 306 306 313 312 310 316 318 318 317 317 316 313 306 310 315 317 314 311 301 306 302 299 302 306 304 307 307 304 320 317 317 318 319 319 319 326 326 325 330 337 337 337
311 315 316 319 322 322 326 330 325 321 313 304 300 306 310 306 312 311 314 314 315 314 309 307 309 310 306 306 306 308 311 306 308 309 307 309 305 314 311 310 314 313 314 317 312 311 313 305 310 313 313 315 318 316 313 317 318 313 311 317 308 304 302 309 308 299 299 298 301 305 307 306 308 310 313 314 315 317 319 323 320 321 323 325 326 330 339 340
313 314 314 322 328 323 328 329 322 318 308 301 300 301 308 310 313 312 315 316 316 314 309 311 308 309 309 306 308 310 310 305 309 307 305 308 304 311 310 312 311 314 315 316 312 314 314 305 307 313 313 315 315 313 305 309 315 317 317 313 316 311 308 306 307 307 306 298 301 302 305 302 315 312 314 314 318 322 319 320 318 320 324 327 330 328 334 341
316 314 312 324 324 321 330 326 317 314 305 299 302 304 311 308 311 314 315 315 312 312 310 310 312 308 308 309 311 308 310 309 308 308 307 309 307 313 311 314 312 313 314 317 314 316 310 315 303 310 315 314 307 310 307 309 307 309 309 308 311 310 314 311 310 306 303 301 301 300 299 306 315 319 318 318 321 322 321 322 327 325 325 325 329 330 338 341
313 309 311 324 322 328 327 319 311 306 304 305 307 307 309 308 311 312 314 316 316 319 315 313 312 309 311 309 308 312 310 309 309 307 308 309 308 306 313 314 315 313 315 315 314 314 311 310 305 308 308 308 310 314 313 312 312 310 309 307 309 308 306 303 302 309 308 304 298 300 300 308 315 322 321 319 321 319 321 322 325 324 321 332 333 330 339 339
309 304 309 326 328 327 320 309 308 310 306 303 304 308 308 317 311 311 313 317 317 315 318 315 315 313 313 312 312 310 310 309 309 308 310 307 311 311 313 317 316 317 313 310 312 316 315 314 309 306 308 309 312 315 316 316 315 314 313 310 312 312 311 306 297 304 307 307 308 308 303 305 319 322 322 322 321 319 321 320 323 323 327 326 330 326 340 347
311 308 321 327 330 325 316 307 310 308 305 307 311 311 313 311 311 312 311 315 313 316 314 313 313 312 314 313 314 313 312 309 310 308 310 310 312 314 317 316 318 316 316 313 315 316 331 310 308 308 312 313 315 317 316 316 315 312 313 313 311 308 309 308 307 312 306 308 304 304 303 306 320 333 324 323 327 321 329 322 324 324 324 329 326 330 348 343
307 308 312 323 328 323 312 303 302 305 306 309 309 309 313 311 310 310 311 314 312 313 312 312 314 314 312 316 315 311 314 306 311 310 309 312 310 317 317 317 318 314 314 313 311 316 309 313 309 305 305 307 309 312 312 315 313 310 309 312 312 312 312 311 312 321 306 306 306 303 298 307 321 328 328 325 319 319 321 322 325 324 329 326 333 340 342 352
307 312 309 313 324 319 309 310 307 306 306 306 307 307 309 310 311 312 312 312 315 314 313 312 313 315 313 315 314 315 315 311 309 311 312 312 311 316 316 317 318 316 317 319 333 318 311 311 309 300 299 297 297 298 301 305 308 310 311 311 312 310 311 309 305 311 301 311 315 305 306 315 321 326 320 321 320 323 323 323 323 329 328 326 328 337 351 353
307 305 311 309 315 316 314 315 312 309 308 308 306 308 309 307 310 312 315 314 315 315 314 314 315 315 313 313 312 312 312 315 311 310 311 310 312 314 317 317 317 316 326 340 326 318 311 312 313 311 306 304 306 313 313 313 310 306 308 310 310 313 313 312 314 310 303 307 307 309 313 312 315 315 318 319 322 319 320 324 326 325 330 336 335 345 347 353
308 303 309 311 311 311 310 312 309 310 307 312 307 310 307 308 310 312 316 311 315 314 314 313 313 311 311 311 310 311 312 312 315 312 311 311 313 314 316 317 317 320 348 329 326 315 317 309 310 318 314 311 310 313 312 312 309 310 309 309 310 311 312 310 307 306 320 312 300 312 317 313 313 316 318 323 323 324 324 326 325 331 329 332 339 343 345 346
305 311 311 316 307 305 306 306 309 307 309 311 310 314 310 309 309 308 312 314 314 315 310 312 312 312 312 311 312 308 310 311 313 310 313 313 312 314 312 315 315 327 324 317 319 314 311 306 310 311 310 310 311 311 312 311 311 311 311 311 310 311 310 309 312 311 320 309 304 319 322 317 317 316 318 321 327 331 320 323 326 326 327 339 340 333 337 339
308 306 308 314 307 310 311 314 314 310 308 309 310 312 310 310 308 310 309 310 311 311 313 307 309 311 312 313 312 309 315 307 307 314 317 314 312 313 310 312 314 320 316 315 316 321 314 308 311 311 309 310 311 311 312 310 311 312 311 311 311 311 310 310 310 311 311 319 318 316 322 316 314 316 319 323 324 323 325 329 331 326 324 339 336 341 332 337
301 299 301 308 310 309 311 313 314 313 310 313 307 310 310 310 310 312 311 310 308 309 313 308 309 311 312 312 314 310 311 313 313 312 316 316 316 319 314 313 312 315 316 313 314 322 311 309 312 310 308 308 311 312 311 311 310 310 311 311 311 311 311 311 311 311 313 312 312 312 321 319 319 329 326 327 334 329 329 323 323 333 327 323 325 325 330 333
307 306 305 303 303 307 311 313 312 312 310 313 311 312 313 313 312 313 312 313 310 310 311 309 311 312 312 312 312 311 315 318 318 318 318 317 313 317 313 314 315 313 314 313 314 315 312 309 313 311 306 306 309 310 310 311 310 309 309 310 311 310 308 310 310 312 311 314 314 313 314 311 319 325 323 326 325 326 325 326 327 328 324 327 327 326 332 340
311 308 309 306 303 310 306 310 312 310 307 312 312 312 311 311 313 314 313 315 316 315 315 316 316 313 314 313 314 317 319 318 319 319 319 319 320 319 319 318 316 314 313 313 316 311 313 310 308 307 304 304 309 310 309 309 308 305 306 309 311 312 313 313 313 316 315 316 315 309 309 318 322 325 322 323 321 324 325 324 327 331 340 332 332 331 333 335
Wind_Speed
22 22 22 22 22 21 23 23 23 24 23 22 22 22 21 21 20 20 21 20 20 20 19 19 18 17 16 15 15 15 14 11 10 9 11 17 8 6 7 8 11 10 8 5 8 10 10 9 9 7 8 7 8 10 6 6 7 3 7 7 5 3 6 7 16 11 9 11 10 10 9 10 11 10 10 8 9 10 9 12 13 14 15 17 18 18 18 17
21 21 22 22 23 24 24 23 22 23 23 24 23 23 22 20 20 20 21 20 19 19 18 18 18 16 16 15 14 14 13 9 12 15 21 8 7 8 8 7 10 11 8 9 10 10 9 8 7 6 8 8 4 4 3 5 4 6 2 7 7 7 9 6 9 10 11 11 10 9 10 11 12 12 10 6 11 11 12 14 16 18 18 19 18 18 17 17
21 22 22 23 24 24 25 25 24 24 24 23 22 22 22 22 21 20 20 20 19 19 18 17 17 16 15 14 11 11 10 8 13 20 21 15 11 11 10 11 11 12 11 10 11 10 10 12 6 6 7 9 4 7 7 4 7 2 5 6 6 7 8 9 10 11 12 10 11 11 9 9 10 12 12 7 5 11 12 12 14 16 19 18 18 17 16 16
21 22 22 23 23 25 24 23 22 21 22 23 24 23 22 22 21 21 20 20 19 18 17 16 15 15 14 13 10 11 8 10 12 14 13 19 17 14 13 12 12 12 13 14 13 10 9 11 11 6 7 8 9 7 7 8 8 3 4 6 5 4 8 7 8 9 10 11 10 9 9 10 9 10 10 13 13 8 10 12 15 17 18 19 18 17 15 15
22 22 23 22 22 23 23 22 22 21 21 22 23 23 24 23 22 21 21 20 18 17 16 14 14 13 13 11 11 8 8 8 1 7 10 17 18 16 14 14 13 13 14 11 12 13 10 11 10 8 10 8 9 5 6 7 8 9 3 7 7 7 8 10 10 9 12 9 9 8 10 10 9 10 15 12 4 5 8 13 16 17 18 18 18 16 15 14
22 22 21 21 22 23 23 24 25 24 23 22 22 23 23 23 22 20 21 19 17 15 14 13 12 12 12 9 10 8 5 3 7 4 10 6 14 15 14 13 14 12 11 12 11 11 11 10 12 10 9 11 5 7 9 2 6 3 5 5 8 9 11 8 9 8 10 10 10 9 11 10 11 8 12 14 3 6 11 16 16 17 17 16 16 16 15 14
22 22 22 22 22 22 23 23 23 23 22 22 22 22 23 23 21 19 20 18 16 14 12 11 10 10 10 11 9 7 9 13 13 4 9 11 6 10 11 10 8 8 11 11 12 11 10 12 11 11 12 14 10 4 11 8 7 7 8 4 6 8 10 8 8 9 10 10 12 11 9 10 10 12 9 15 17 9 14 16 17 17 17 16 16 14 15 14
23 22 21 22 22 22 23 23 24 23 22 21 22 23 23 23 21 20 20 19 14 12 11 10 9 8 8 7 5 7 11 13 6 11 11 14 9 7 8 9 10 10 11 13 12 12 11 13 13 11 12 10 7 10 5 5 6 8 6 7 10 10 8 8 11 9 8 10 10 12 13 12 11 11 9 11 13 13 15 15 17 17 16 15 15 14 14 13
22 22 22 22 22 22 23 24 23 23 23 22 22 22 23 22 21 20 21 17 13 10 9 8 7 8 5 6 7 9 13 16 12 13 14 14 12 10 12 9 11 12 12 13 14 13 11 12 15 12 7 6 7 5 5 9 11 6 8 8 9 7 10 11 9 9 10 8 11 12 14 13 13 13 12 10 12 14 14 15 16 16 15 14 14 14 11 10
22 23 23 23 23 23 24 23 23 23 24 23 22 22 22 22 21 19 20 14 9 8 7 8 8 6 7 5 8 9 1 18 12 14 14 15 14 12 15 12 15 15 13 13 13 15 15 10 16 12 15 16 8 3 6 12 5 10 6 10 11 8 9 8 11 11 9 11 12 12 13 13 12 8 10 10 11 13 14 15 14 14 14 13 13 13 11 11
23 23 23 23 23 23 24 23 24 23 23 24 23 21 20 22 20 19 18 13 7 6 7 8 5 6 6 8 8 10 3 7 12 10 13 14 15 14 15 13 15 14 14 13 15 15 16 15 12 11 6 5 6 9 10 7 11 9 10 10 11 9 8 9 11 11 10 11 13 12 13 12 13 9 9 11 11 12 14 14 13 13 12 12 13 12 9 8
23 24 23 24 24 24 25 24 24 23 23 24 23 21 21 21 21 18 17 11 8 5 8 7 6 5 7 9 11 12 3 6 4 9 8 15 14 15 15 14 14 14 14 14 14 14 16 15 12 3 5 2 9 4 7 13 10 11 11 10 9 9 9 7 9 11 10 10 12 11 13 10 9 11 11 10 12 11 12 13 13 13 11 12 12 11 9 8
23 24 24 24 25 25 26 27 25 24 24 24 22 21 21 21 21 17 15 12 6 7 7 8 7 7 7 8 15 21 15 3 7 7 8 10 12 11 13 14 14 15 15 14 12 13 12 11 8 11 13 8 4 4 11 7 13 9 8 8 9 9 8 10 7 8 9 10 10 4 6 8 11 13 12 12 10 13 12 11 12 11 11 11 11 10 10 9
24 24 25 25 25 27 25 24 25 24 24 24 22 21 21 22 20 16 13 10 10 6 5 8 8 8 7 11 8 13 16 8 2 5 10 11 13 14 13 14 14 14 14 16 13 11 10 8 10 13 8 14 7 6 5 7 10 9 9 9 8 8 7 9 7 8 9 8 9 6 3 7 12 13 12 12 11 11 11 11 12 11 11 11 10 10 9 11
23 24 25 25 27 25 25 25 24 24 24 24 23 22 22 20 17 14 12 11 10 8 4 7 8 6 7 8 15 6 8 6 6 11 10 14 14 13 15 15 15 16 14 14 10 8 7 9 11 10 12 11 13 10 7 7 7 8 6 6 3 3 6 9 10 9 8 5 4 6 5 8 12 12 14 12 13 10 10 10 11 11 11 11 10 10 9 10
21 23 24 25 25 25 24 25 23 24 24 24 25 24 23 17 14 12 12 12 10 4 5 6 9 11 10 12 3 13 10 11 11 12 11 14 15 14 15 15 13 14 14 13 11 10 7 9 10 9 11 7 8 8 10 7 6 8 7 9 9 6 7 9 12 9 9 9 8 7 4 10 11 12 15 14 14 15 13 11 11 12 12 11 10 9 9 10
22 23 23 25 25 25 26 24 24 24 25 25 28 25 19 16 13 10 8 9 8 7 5 6 3 10 5 3 3 8 10 12 10 11 12 14 15 13 15 14 12 13 14 14 10 3 9 11 8 11 12 8 5 11 13 9 8 8 9 6 8 10 5 7 13 8 11 8 10 8 6 10 12 13 13 14 14 13 13 14 12 11 11 11 10 10 9 10
22 23 24 24 25 25 25 24 24 25 26 25 25 23 17 12 9 8 10 8 7 6 8 10 11 8 14 18 12 11 10 11 12 11 12 12 13 14 15 13 12 15 14 13 10 11 11 11 10 11 9 10 9 11 9 11 10 11 11 11 10 9 12 10 8 10 6 6 3 9 4 11 13 13 13 13 15 13 13 12 13 12 11 11 11 10 11 10
25 25 25 24 26 26 24 26 24 24 25 27 25 25 12 8 6 7 6 6 6 4 5 8 7 8 8 7 17 10 10 12 12 13 14 14 15 13 14 13 14 15 13 12 10 15 11 11 11 11 12 12 12 13 12 11 12 14 14 13 8 9 12 5 9 10 13 12 13 7 6 11 13 13 13 12 14 14 12 13 13 13 13 12 11 11 11 11
25 25 25 25 25 25 25 25 25 22 22 22 16 10 5 4 5 4 7 9 10 13 18 4 16 14 16 6 12 9 10 12 12 13 13 14 14 17 16 14 14 13 13 12 12 17 11 13 13 12 11 12 14 16 16 13 13 14 17 8 11 11 11 14 14 10 9 7 7 12 8 9 11 13 13 13 11 12 11 14 12 13 12 13 12 12 11 12
25 25 25 25 25 26 26 28 26 23 17 14 13 7 8 10 13 4 3 9 16 19 19 19 15 16 13 5 9 15 14 13 11 13 14 12 15 16 15 15 15 14 14 15 12 12 12 13 13 14 15 14 16 16 18 18 14 14 10 8 13 12 9 15 14 11 10 9 8 9 12 10 11 12 13 12 11 12 12 13 13 14 13 13 13 15 13 11
25 26 25 25 26 26 28 28 28 23 20 10 6 7 11 13 12 10 8 11 12 14 19 20 19 18 9 15 8 11 7 11 14 14 13 16 14 14 16 16 16 14 14 16 13 13 13 14 14 15 16 14 15 16 17 17 15 15 9 11 10 12 9 15 12 10 10 8 4 9 8 10 10 12 12 13 12 9 11 13 12 12 14 11 12 14 14 13
26 25 25 25 26 28 29 31 28 25 9 5 6 11 12 13 14 9 10 12 15 15 15 16 19 17 13 11 6 10 13 12 15 16 16 16 14 16 16 16 15 14 15 17 14 13 13 13 18 15 15 16 15 16 15 16 13 9 11 10 9 8 10 11 10 13 11 7 6 7 7 8 13 11 11 12 12 11 11 14 12 12 13 12 13 13 14 14
26 25 25 25 27 28 31 30 31 14 7 11 11 15 13 11 11 10 12 10 12 15 16 14 15 15 16 14 8 13 14 12 14 18 16 17 14 16 14 19 16 16 15 18 19 14 13 12 17 16 15 16 15 14 14 12 9 11 12 10 8 13 12 10 12 13 11 12 6 8 7 5 9 8 8 10 11 11 12 12 11 11 12 12 13 14 14 14
25 25 25 26 26 28 30 29 12 5 13 12 15 18 19 13 5 7 10 11 11 13 14 18 12 13 13 9 11 12 14 11 15 14 15 17 17 14 13 14 12 15 16 19 19 16 16 16 14 17 15 16 17 14 16 13 10 9 14 16 13 7 11 15 19 15 9 9 10 10 6 7 5 1 5 5 9 10 11 11 12 10 12 12 13 13 14 14
25 25 25 24 26 27 34 12 3 14 16 14 15 12 9 8 7 9 9 8 10 10 13 16 11 14 10 17 10 12 13 14 16 13 15 16 15 14 9 12 11 15 19 19 16 11 13 16 15 16 16 17 16 14 15 13 10 10 12 17 20 11 14 17 23 13 10 8 12 13 9 7 6 7 7 5 7 11 10 12 14 11 9 12 10 11 14 14
25 26 23 23 22 23 14 4 12 17 13 9 11 15 11 10 7 11 8 8 11 8 15 7 16 8 11 15 14 12 14 12 12 15 18 17 18 14 14 11 13 11 12 10 9 12 15 19 17 16 18 17 15 13 7 13 12 11 11 17 11 14 15 16 15 14 8 8 9 17 12 8 9 10 13 9 8 8 10 12 12 13 13 13 13 13 12 14
26 24 23 22 22 13 9 12 13 12 13 14 14 13 15 9 8 8 6 6 6 7 12 12 5 8 12 15 16 13 10 12 15 17 18 19 20 16 17 15 14 15 14 13 14 9 16 14 16 17 18 14 12 12 12 12 13 10 7 14 14 12 15 16 5 13 10 8 9 11 16 9 7 13 16 14 14 15 17 16 13 10 14 13 14 14 14 15
25 24 23 22 24 31 15 10 8 12 12 13 13 13 10 11 9 6 6 9 3 5 6 12 2 10 8 15 16 14 15 13 13 15 17 18 21 12 14 16 14 16 17 17 13 11 11 17 15 17 16 12 9 13 16 15 14 14 7 9 10 14 13 9 7 9 8 7 8 7 11 9 8 12 14 17 17 18 17 16 16 14 13 13 14 14 14 13
25 24 24 19 21 12 2 10 13 19 14 14 14 13 13 10 8 8 6 10 4 6 11 6 9 12 13 16 14 16 19 13 12 15 18 15 20 20 14 12 15 16 17 17 17 12 13 14 16 13 15 11 11 12 15 13 15 13 11 15 15 16 6 5 8 8 7 10 7 13 12 12 9 9 13 13 14 14 14 12 12 14 16 16 15 16 14 13
24 25 21 16 9 7 11 10 18 17 13 9 10 14 10 7 7 8 10 6 6 2 10 12 11 15 17 17 13 15 20 14 17 17 16 17 19 19 13 12 12 12 12 12 12 16 17 17 12 7 8 9 11 13 15 16 17 14 5 9 7 1 3 5 8 8 9 9 8 13 12 15 11 6 8 15 19 19 16 16 16 17 16 15 15 16 16 14
26 27 24 14 14 9 8 10 11 13 13 13 12 10 7 9 8 10 10 6 11 13 12 11 13 14 18 17 13 16 16 16 15 18 17 15 15 16 15 12 12 12 14 12 12 15 16 16 13 12 11 16 15 14 14 17 19 13 11 13 11 6 5 8 8 10 9 9 9 14 12 12 11 9 9 12 18 23 18 13 15 17 16 16 18 17 14 12
28 27 31 21 15 11 18 22 16 12 13 14 9 8 8 9 11 10 15 9 3 8 10 10 14 17 17 18 16 16 19 16 15 17 18 18 16 18 18 17 13 13 10 13 13 12 11 7 16 13 13 15 15 14 12 13 6 10 10 6 8 9 8 7 7 6 7 10 13 11 13 12 6 9 10 10 9 14 13 14 13 21 20 17 16 17 17 15
28 29 18 13 9 14 12 13 12 12 10 8 7 7 9 11 11 12 16 15 8 13 9 11 16 17 18 15 15 15 16 17 17 14 18 15 18 16 17 20 16 15 15 12 14 13 11 10 10 13 11 15 17 15 11 10 9 9 8 10 10 9 7 9 7 10 10 9 10 17 12 6 10 1 8 9 10 16 11 12 8 7 17 13 16 16 18 17
33 28 19 15 12 15 19 16 12 10 8 7 7 9 11 11 11 13 13 13 15 10 11 12 13 15 16 16 16 19 15 12 18 18 17 16 17 15 17 17 21 17 16 12 12 10 17 10 12 16 10 16 15 14 12 16 11 12 10 12 13 10 5 10 6 9 8 8 8 5 7 4 6 2 1 6 10 9 11 7 10 6 10 10 9 13 15 14
24 10 12 13 12 12 15 13 13 12 9 7 9 10 13 11 11 13 11 12 15 8 8 7 11 15 12 13 15 19 22 15 19 16 15 17 17 18 17 15 18 22 14 13 10 11 12 12 16 19 18 18 18 13 15 10 11 12 12 13 13 12 13 8 9 12 12 8 8 4 6 8 2 4 8 11 9 6 2 3 5 7 6 11 9 9 6 11
11 14 9 10 13 13 13 13 10 11 9 9 11 12 12 13 18 16 10 16 10 7 13 10 12 12 13 13 13 18 19 20 15 14 12 16 15 20 18 17 19 21 23 14 12 12 8 10 17 19 21 15 19 16 17 11 12 8 12 12 13 16 10 6 8 6 9 9 8 10 11 9 9 7 9 11 10 8 6 3 5 7 7 5 10 12 14 15
13 10 15 18 20 15 11 14 12 10 9 10 13 14 12 16 15 22 18 20 15 12 11 11 7 14 13 13 15 17 19 16 14 16 13 18 11 19 19 15 21 20 21 24 12 15 13 10 15 23 20 17 17 17 18 16 17 14 12 13 12 11 12 9 6 8 8 9 8 7 10 11 6 2 8 13 11 10 10 7 7 9 9 8 7 9 14 14
11 9 9 13 15 15 13 14 12 10 9 11 12 14 15 17 17 19 18 17 15 11 11 10 11 15 16 13 13 18 18 16 14 14 13 14 14 18 21 14 17 23 23 23 17 8 11 11 7 20 18 16 15 14 14 13 13 17 14 11 8 8 9 9 7 6 4 8 5 8 8 5 4 5 11 16 11 10 12 10 9 8 10 11 6 6 8 13
8 6 9 8 9 14 15 13 9 10 11 14 14 14 11 16 20 22 20 21 15 13 11 14 14 8 17 17 17 14 17 20 16 13 15 11 15 18 21 20 14 23 25 23 16 12 11 8 8 15 19 16 14 12 14 13 13 12 12 10 7 8 6 7 5 9 8 9 7 5 4 4 6 8 15 12 7 7 6 9 7 3 3 8 9 8 4 12
9 7 8 4 12 15 13 10 10 12 12 12 16 16 18 15 14 18 23 24 18 12 11 13 10 10 7 13 17 16 13 18 17 14 14 13 16 11 18 18 16 19 21 21 18 13 10 11 10 12 12 13 12 15 16 17 15 13 11 11 11 11 9 9 9 10 10 7 4 4 5 6 6 6 10 10 8 9 5 3 6 6 5 1 6 8 5 6
6 6 7 9 14 15 12 10 9 10 10 15 14 14 14 13 17 18 17 16 16 10 13 16 15 13 11 12 13 15 14 16 16 16 14 14 18 16 16 23 20 17 17 14 14 15 13 8 11 12 11 13 17 17 19 18 18 15 14 11 11 9 7 7 5 6 6 8 10 6 6 7 4 7 8 9 7 11 8 6 3 7 5 5 2 4 8 4
7 11 8 10 11 13 10 10 10 11 14 13 15 20 19 17 15 14 18 17 16 13 12 12 14 14 14 14 14 15 19 13 18 15 14 17 15 20 12 25 21 20 17 14 17 16 10 8 8 11 10 14 16 12 15 16 17 16 14 14 13 13 11 10 9 5 5 8 9 6 4 5 4 3 7 6 7 8 3 5 3 3 8 3 2 2 4 9
10 11 12 9 13 12 11 12 12 13 13 15 18 19 18 18 17 16 17 15 11 12 15 13 12 15 14 14 15 16 14 13 18 20 18 15 15 18 21 23 23 18 18 13 14 11 11 8 9 6 7 6 8 11 12 16 14 12 12 13 16 16 15 14 11 3 7 8 10 4 7 7 3 7 6 7 3 5 9 8 2 1 7 4 4 3 2 6
10 9 12 12 10 11 13 11 12 12 14 16 17 20 19 16 16 19 17 15 12 14 12 15 16 12 14 15 16 16 16 17 8 20 17 17 13 17 22 19 20 21 17 11 14 10 13 8 9 9 11 13 12 11 11 13 16 13 16 18 21 22 19 12 11 6 6 3 5 4 2 7 7 4 6 2 4 4 6 2 9 8 3 0 1 6 3 5
5 7 5 11 10 11 13 13 14 14 13 15 18 17 19 18 17 17 10 11 13 16 16 16 14 17 16 15 16 15 14 13 14 4 13 14 16 12 15 21 18 19 19 12 9 12 10 12 8 7 9 9 10 5 12 14 13 15 16 19 16 15 16 14 5 6 8 5 8 6 4 9 8 8 7 5 5 2 4 6 4 1 4 5 2 1 5 4
6 5 5 5 7 14 12 12 14 15 14 12 10 9 18 20 16 12 13 11 10 15 16 17 16 16 16 16 18 16 12 13 14 17 13 18 14 13 18 21 21 21 9 3 11 11 7 11 15 12 15 15 17 11 10 13 13 13 15 15 17 18 14 16 12 11 6 6 6 7 13 14 13 12 8 6 7 8 8 3 4 3 1 4 6 4 3 6
4 6 13 6 7 5 12 12 14 15 18 17 12 12 15 18 18 14 11 15 15 17 15 12 18 17 16 17 13 13 12 15 13 15 13 13 13 16 15 19 18 14 12 13 14 13 11 11 16 19 19 19 20 22 17 12 14 15 16 17 19 19 20 19 11 14 7 7 9 6 11 11 10 13 12 10 8 2 2 3 4 3 4 4 6 8 8 9
7 10 10 13 10 11 13 15 16 15 18 19 11 15 14 15 15 15 11 14 15 15 18 14 16 16 18 14 12 10 8 10 13 8 11 11 12 8 12 16 13 14 15 13 14 7 8 12 17 16 14 14 17 23 23 22 17 18 18 17 18 20 22 21 21 19 16 8 8 8 9 10 9 8 6 3 1 2 5 5 1 4 7 4 5 4 11 9
7 8 8 15 13 14 14 13 11 10 11 13 14 15 14 15 15 15 17 15 12 16 15 18 16 16 18 19 14 13 14 15 11 13 11 14 14 7 11 11 11 15 12 14 12 8 8 8 9 11 14 19 22 23 23 21 19 16 17 20 21 20 19 19 20 20 18 17 18 13 5 4 5 3 6 7 5 2 5 5 6 4 6 8 7 10 7 11
8 6 8 12 14 10 11 12 10 9 10 10 9 11 12 14 13 9 9 11 16 10 11 16 17 14 16 19 19 19 16 1 5 10 8 11 10 8 6 5 11 11 14 12 12 10 15 10 9 11 13 14 16 15 16 18 20 21 20 22 23 21 20 17 14 15 15 8 1 4 4 5 3 7 7 5 6 6 4 4 6 7 8 7 9 9 6 5
8 7 8 8 10 12 12 12 10 7 9 8 10 10 10 14 12 11 9 9 9 15 12 7 7 8 8 13 4 10 10 8 9 10 10 11 11 9 9 8 9 12 9 13 11 13 9 9 10 11 12 13 14 18 23 21 19 18 19 23 22 15 13 13 13 13 12 7 5 6 8 5 1 2 4 4 2 7 6 6 3 2 4 5 4 3 4 5
Wind_Direction
350 349 347 345 344 343 345 347 346 343 341 339 336 336 336 334 331 329 327 322 320 316 314 312 311 310 313 316 318 316 318 297 296 246 238 246 269 119 91 117 153 167 173 213 240 246 241 242 240 222 234 237 221 239 177 227 276 280 264 222 43 76 88 58 121 156 127 125 134 117 105 123 119 123 105 117 102 107 127 114 113 115 99 110 118 125 127 125
349 348 346 342 343 344 347 346 345 343 340 337 336 336 334 331 331 328 325 322 317 315 312 309 307 308 310 314 314 314 315 287 267 262 249 251 212 151 142 161 155 166 175 231 238 227 250 230 232 203 245 229 188 211 203 201 202 246 213 354 77 31 35 110 130 129 150 127 129 112 130 112 108 120 61 74 131 113 101 94 97 102 109 115 125 127 131 138
348 347 345 344 344 344 345 345 344 342 340 336 335 334 332 330 330 328 324 320 316 313 309 306 304 306 309 311 310 308 297 288 258 254 252 212 158 162 158 159 169 167 187 221 225 244 244 257 199 216 230 259 172 157 233 154 273 20 293 132 100 48 75 70 90 92 94 125 125 134 120 127 143 119 135 142 75 117 120 120 120 121 126 131 132 135 142 143
348 347 345 344 343 344 344 342 340 340 339 336 335 333 330 329 327 327 324 318 312 308 306 301 301 303 306 305 313 307 283 272 268 249 244 179 168 161 161 160 173 182 209 241 257 244 250 269 293 224 218 243 233 159 214 117 246 76 349 57 64 149 136 104 107 114 132 111 106 106 135 128 139 95 149 148 150 140 132 133 136 136 136 136 138 143 144 145
347 347 345 343 342 342 341 338 337 337 338 337 333 332 332 330 328 327 322 317 311 305 300 298 297 299 303 302 300 285 294 284 53 62 1 169 160 155 159 166 173 194 213 243 259 261 252 260 261 232 252 235 224 133 239 145 266 126 83 124 109 97 96 111 114 122 86 97 115 130 102 74 67 94 82 68 23 132 143 132 135 136 136 140 144 144 150 149
345 345 343 341 340 339 337 336 339 339 337 335 335 332 328 329 326 323 323 318 312 303 294 291 294 297 299 309 295 269 270 216 49 26 73 83 142 148 156 166 181 207 218 241 254 253 239 240 254 237 219 245 254 245 194 64 324 97 86 71 91 79 87 83 81 116 157 136 125 111 87 100 102 108 87 90 111 251 130 127 132 135 138 139 142 149 147 151
343 342 341 340 339 337 336 336 337 336 335 332 331 331 329 327 327 323 323 319 310 299 288 282 285 292 300 299 266 261 238 269 295 130 106 104 107 141 150 161 165 209 228 235 234 243 224 240 235 226 234 231 209 226 170 104 277 63 94 107 107 141 106 115 129 86 71 72 81 95 121 103 109 99 127 144 179 136 115 124 130 136 137 139 146 151 150 151
341 340 338 338 337 336 335 336 335 334 333 331 331 329 330 328 326 323 324 319 310 296 287 282 286 288 304 284 264 227 237 250 225 132 141 127 137 139 152 175 186 200 219 225 228 229 228 228 223 239 253 275 139 211 116 127 190 108 108 108 97 96 124 127 87 88 113 123 137 109 92 92 85 87 100 95 109 118 119 128 133 134 140 143 144 148 147 156
340 339 338 337 336 334 334 336 334 333 332 330 331 330 328 327 326 324 327 322 309 293 284 284 276 285 298 297 263 280 257 235 131 146 149 150 155 160 180 180 191 196 210 222 232 241 232 218 232 230 190 236 153 313 98 230 106 143 125 136 124 132 133 94 127 117 85 92 92 96 101 105 106 111 94 108 113 117 125 130 134 139 141 144 148 140 145 166
339 338 337 337 335 334 335 333 332 331 329 329 330 329 327 326 324 322 327 322 308 296 278 263 265 276 266 249 252 254 109 104 138 147 164 158 156 177 195 185 179 198 208 217 227 234 231 208 236 184 258 287 165 146 135 239 93 102 151 137 146 130 113 141 109 110 118 102 111 114 117 115 128 125 109 105 118 132 136 133 137 147 143 147 147 141 152 178
339 337 336 336 335 334 331 330 331 329 328 328 327 326 324 324 322 319 324 321 308 287 273 264 266 256 241 228 249 233 74 254 139 158 157 161 165 182 193 192 186 198 212 212 227 230 227 237 203 243 212 286 194 137 241 119 117 149 150 137 114 161 140 111 106 112 145 122 123 134 129 126 104 111 114 128 129 142 142 140 150 144 151 147 139 141 163 189
338 337 335 334 334 332 332 331 329 328 328 325 324 323 321 320 319 315 318 318 302 281 269 265 240 246 266 271 244 239 23 251 178 142 172 160 180 189 190 200 189 207 206 216 222 228 245 242 290 292 191 318 197 87 160 139 178 133 148 142 148 158 133 137 155 147 107 139 131 130 118 111 127 105 130 133 143 140 145 151 151 148 149 140 140 147 179 163
337 336 335 333 332 333 332 331 329 327 325 322 321 320 318 316 313 307 310 304 267 249 268 271 253 247 281 259 243 242 262 292 227 174 156 180 184 198 201 203 197 208 213 223 213 242 239 269 292 242 264 254 125 215 84 231 120 146 163 142 176 169 148 175 111 111 158 99 132 122 132 110 111 129 137 150 150 148 147 153 155 149 150 146 144 155 184 155
336 335 335 334 332 333 330 328 327 324 322 321 319 317 316 312 305 299 297 284 300 286 269 273 265 257 258 267 274 223 217 255 134 197 186 180 187 193 204 209 203 206 220 232 235 208 245 257 280 259 229 243 184 73 177 194 110 167 196 147 178 190 159 150 162 181 143 160 148 184 132 125 126 139 145 140 152 152 155 156 153 155 151 148 156 162 179 153
335 335 334 335 333 329 328 326 325 322 320 320 316 315 312 306 300 292 294 287 252 249 275 277 242 259 221 255 252 96 16 280 224 210 192 182 190 182 200 205 209 206 216 235 232 247 223 222 263 255 241 238 246 160 211 153 164 174 153 194 148 232 172 163 153 199 123 186 100 188 180 136 143 139 152 145 146 160 154 157 158 159 151 159 159 171 170 159
335 333 333 331 329 327 328 325 322 320 320 318 316 311 306 292 283 283 282 279 302 272 225 256 224 229 295 275 308 129 194 212 216 204 188 191 191 189 191 199 211 212 219 225 252 226 203 231 234 231 246 236 276 186 176 170 195 164 178 188 176 148 210 191 153 194 138 165 130 247 112 140 146 152 153 158 153 150 161 164 175 158 161 155 160 172 164 165
332 332 332 331 330 327 324 324 322 320 321 317 315 306 297 291 275 268 275 277 254 211 217 255 282 194 257 86 168 210 200 205 211 187 184 201 188 192 184 192 206 211 209 224 243 279 183 221 220 246 251 230 229 211 187 170 179 172 175 221 180 169 206 226 150 194 169 184 160 159 209 146 137 160 163 159 157 155 164 159 170 163 157 165 160 172 170 166
331 331 330 328 328 327 323 322 322 321 319 316 312 296 286 281 288 284 254 244 230 213 228 247 269 280 245 256 249 224 192 195 192 184 182 198 198 191 187 194 197 206 203 222 207 234 185 215 211 232 211 219 204 228 233 176 180 181 174 220 181 191 180 232 167 186 177 185 132 145 249 131 147 154 175 166 167 165 163 158 168 171 163 167 174 170 171 165
332 330 328 328 327 325 322 319 321 323 320 316 298 279 268 244 252 236 253 182 191 191 215 195 190 210 357 197 217 230 188 187 174 178 182 190 198 191 189 200 197 203 202 216 180 223 175 219 208 231 225 202 201 220 214 192 191 177 203 207 170 207 189 160 228 177 175 179 181 165 222 161 155 163 170 180 183 164 162 162 166 167 168 174 181 168 166 167
331 329 327 326 326 324 321 318 319 320 328 327 337 324 233 227 184 171 217 221 229 247 278 258 192 229 257 229 182 192 184 132 187 183 177 199 193 182 189 197 194 209 201 212 173 213 176 212 202 215 226 197 209 218 226 217 182 198 199 204 168 206 175 163 224 179 197 192 168 158 173 173 167 164 173 180 188 159 171 161 168 163 170 173 177 165 172 178
328 328 327 326 325 324 320 318 315 316 321 305 295 291 299 310 336 359 331 236 224 240 258 269 237 236 253 258 187 178 174 162 206 181 192 181 216 180 183 196 191 201 205 209 195 197 212 213 211 208 225 192 214 208 231 239 205 216 171 202 177 204 199 175 197 190 174 228 162 183 167 171 177 169 173 175 189 171 177 167 175 169 169 177 171 168 169 180
328 327 327 326 325 323 320 316 314 312 310 275 249 263 281 287 326 319 304 299 288 273 255 252 255 253 250 276 179 140 157 175 200 182 192 182 200 201 164 206 189 201 198 206 199 191 211 217 214 205 225 205 209 220 223 242 236 234 261 177 223 186 209 169 189 170 179 206 198 189 199 151 178 180 173 180 185 178 183 170 179 173 167 174 175 164 167 184
326 325 326 326 325 323 321 314 310 311 299 196 223 245 259 285 295 322 309 280 273 272 267 242 231 242 237 236 156 167 187 197 192 185 181 195 179 215 164 205 191 203 194 208 203 190 211 210 224 208 222 227 201 222 224 238 261 309 258 207 204 207 201 170 153 161 193 207 176 212 204 171 195 178 186 183 188 178 192 172 179 177 169 177 180 170 176 180
325 324 325 326 325 324 320 314 308 291 211 231 265 262 279 290 292 316 306 289 291 276 265 254 228 221 233 199 169 188 208 191 205 182 174 195 201 202 192 201 197 206 199 203 215 198 212 208 220 216 206 238 222 205 233 231 218 230 252 262 179 224 200 156 157 175 205 200 228 177 222 196 180 164 199 190 193 189 188 178 187 177 177 179 184 174 179 173
324 325 326 326 328 324 318 316 305 346 329 271 259 257 247 250 271 321 308 290 252 248 240 250 236 216 213 212 183 211 193 212 210 184 173 195 201 193 211 186 217 205 210 196 218 217 205 215 209 233 198 218 238 198 212 219 230 201 237 249 240 233 149 169 162 178 201 195 193 208 198 213 82 131 251 194 191 221 183 188 186 181 179 181 185 180 176 175
323 324 326 325 326 331 310 298 17 344 315 286 271 289 8 326 356 342 299 279 275 266 180 229 177 197 214 188 191 208 191 219 194 191 173 196 214 210 191 203 218 195 217 195 214 224 217 197 205 226 227 204 226 249 191 214 232 219 193 240 260 214 199 174 160 177 186 215 179 205 212 211 142 178 221 320 286 223 203 198 191 180 183 183 193 185 179 182
322 323 324 324 325 339 341 348 347 315 297 278 347 342 334 323 15 318 280 240 266 217 206 134 172 138 203 178 185 178 205 201 176 201 177 181 215 201 212 206 188 245 207 216 195 216 235 199 190 213 231 226 203 232 210 188 233 233 193 198 245 260 217 223 194 174 221 202 219 193 198 224 168 190 207 168 240 284 247 204 200 180 188 192 196 195 175 188
321 320 321 323 317 324 264 295 309 300 283 299 316 330 319 326 333 280 253 292 246 145 180 145 210 139 220 164 182 192 225 161 185 193 184 170 220 190 234 198 203 215 216 214 210 199 219 226 185 206 222 225 212 201 222 198 223 233 256 189 196 253 266 291 201 170 195 205 235 206 191 228 238 176 189 181 204 215 226 219 197 198 186 198 198 203 181 193
318 318 318 322 319 299 265 237 267 272 277 310 318 314 315 311 283 291 270 261 90 169 29 173 55 181 221 174 184 201 219 187 203 164 177 178 209 225 211 240 209 213 227 215 228 194 207 240 191 210 213 222 203 193 224 200 223 234 250 296 227 200 249 252 258 251 219 212 237 235 186 219 232 133 186 185 208 214 216 204 195 199 213 200 202 205 194 187
316 314 317 323 320 296 286 223 240 251 273 293 300 302 293 276 260 242 223 250 278 203 184 90 199 168 197 173 195 197 221 190 209 157 177 189 191 225 242 225 237 209 214 223 234 221 203 215 259 207 210 221 195 205 223 211 232 226 203 229 243 178 186 244 288 294 298 247 232 251 222 208 245 194 186 192 202 208 205 208 202 196 208 207 204 206 202 184
313 312 310 317 293 311 313 277 255 246 254 276 310 307 282 251 251 249 228 252 219 207 158 149 180 166 190 185 191 196 223 194 200 167 174 186 189 207 227 218 237 243 227 218 219 231 215 193 218 222 232 204 207 207 211 219 210 236 264 233 274 6 113 261 233 230 262 261 249 250 232 187 234 214 202 197 194 198 193 203 202 203 196 202 194 205 208 189
313 309 304 298 264 269 253 259 279 343 335 322 310 295 255 243 217 237 237 140 260 141 201 167 185 179 193 191 204 191 208 204 199 177 180 183 189 195 205 225 186 218 211 210 212 223 231 209 188 199 209 227 190 223 197 225 209 190 220 209 232 212 181 216 225 223 223 255 238 245 233 241 242 258 218 201 184 191 194 203 198 196 201 208 200 195 202 186
313 308 302 284 252 222 232 244 277 292 313 299 287 279 241 240 237 210 246 229 183 145 185 196 174 186 191 190 209 192 202 208 193 177 189 181 205 194 205 228 192 224 213 196 218 206 224 211 167 200 193 217 216 206 190 214 203 169 208 253 203 229 200 223 209 234 261 235 243 264 274 270 282 233 219 238 233 183 181 211 214 191 199 197 195 187 196 195
311 307 301 270 240 226 228 232 244 263 273 277 254 251 243 238 238 245 243 233 225 192 220 195 177 187 193 198 201 192 192 214 181 182 189 182 205 192 203 218 221 200 247 182 227 187 205 196 189 202 200 188 228 235 213 192 187 205 210 221 210 227 211 201 231 235 219 247 232 216 228 239 252 33 169 217 203 156 187 194 191 185 182 188 195 183 191 197
310 297 271 267 239 234 232 230 237 231 243 245 231 239 229 229 240 239 235 230 236 254 267 156 198 179 197 207 202 193 211 193 196 190 191 198 194 212 194 204 215 219 212 221 202 190 215 216 187 203 215 176 219 234 219 175 209 199 211 234 239 212 200 234 222 229 237 241 237 223 237 153 216 152 142 28 50 136 166 181 133 120 123 164 195 175 188 199
305 300 295 271 256 238 208 216 214 221 224 220 232 225 228 224 225 229 247 240 246 245 266 208 231 183 204 202 205 199 188 242 178 203 191 205 195 210 201 198 210 216 217 227 168 213 193 224 178 179 223 175 211 216 247 171 207 171 201 223 241 200 205 214 244 257 280 280 257 273 250 225 168 161 235 185 188 160 178 194 153 146 149 149 158 133 203 218
314 309 292 273 257 238 202 188 186 198 214 225 230 234 227 231 241 248 246 247 256 286 290 243 204 217 192 199 203 203 180 221 190 193 196 197 210 207 209 204 207 211 229 237 174 230 205 219 173 176 196 195 189 222 241 175 237 173 199 207 237 283 283 230 249 213 213 249 253 210 224 232 203 253 177 164 181 143 143 228 228 147 141 157 160 165 188 210
311 295 280 267 251 250 186 170 175 191 209 217 232 248 241 243 233 248 267 285 263 242 269 262 208 217 204 202 197 205 178 201 186 189 224 182 230 191 212 213 195 221 219 230 243 184 235 233 179 177 189 189 183 208 230 239 203 236 200 188 212 180 240 251 255 254 243 227 254 236 236 247 235 167 138 146 151 158 157 164 228 146 163 184 204 194 180 186
277 282 292 258 222 215 167 162 186 192 209 218 229 235 239 257 254 250 246 252 283 287 270 255 252 183 237 205 208 200 191 196 200 192 218 175 217 177 211 210 193 212 220 226 233 218 191 255 180 167 187 180 186 193 220 217 222 231 255 253 195 259 243 227 196 262 292 281 238 243 234 263 203 179 152 135 176 174 155 166 183 192 165 170 182 215 191 177
284 283 265 261 159 163 143 174 193 211 214 221 221 233 240 239 244 256 264 273 279 252 250 272 234 217 207 243 212 202 192 197 209 197 208 157 216 168 209 199 213 193 223 218 231 222 248 231 255 164 185 183 191 180 218 210 206 215 236 251 244 229 202 257 149 209 222 245 244 261 236 58 23 112 130 149 156 123 117 147 128 139 288 165 164 177 211 171
304 273 286 103 128 131 159 182 211 210 217 229 233 243 239 244 241 245 249 250 255 241 267 246 258 245 251 232 229 222 196 195 206 215 188 193 196 185 206 200 214 198 209 223 222 222 238 194 236 156 188 212 212 175 211 223 209 213 208 226 243 213 219 197 201 177 228 246 264 258 253 84 76 59 91 112 105 128 90 60 131 171 198 247 143 167 199 203
294 260 239 180 134 158 170 200 217 216 229 222 223 230 246 246 256 254 247 246 264 250 214 265 270 285 262 277 274 228 228 191 198 232 181 228 181 239 168 217 197 217 192 215 219 214 238 168 208 189 187 215 221 191 186 231 244 229 205 212 237 263 215 229 247 175 189 234 252 238 266 101 111 100 110 117 165 129 144 160 186 154 125 142 168 201 168 191
251 245 316 151 157 188 201 238 222 222 225 229 236 241 246 251 248 246 252 236 228 231 246 225 234 239 248 260 266 268 232 219 195 213 223 203 224 203 194 195 204 214 203 202 213 218 219 253 210 218 203 227 217 195 179 197 249 252 217 210 208 236 237 226 225 232 226 204 221 219 237 120 106 115 124 98 73 100 89 95 341 160 139 135 171 300 145 167
303 294 287 245 179 204 228 229 224 223 227 231 234 244 242 247 236 237 246 251 243 218 221 242 243 247 266 245 258 271 259 236 186 203 225 215 226 199 217 191 202 215 209 179 211 182 230 186 271 235 205 211 203 171 225 184 199 246 250 207 215 215 227 250 254 167 237 239 243 205 222 122 63 54 74 118 203 159 148 139 146 137 124 180 159 180 186 152
296 268 247 259 207 219 229 228 244 232 221 230 233 235 241 236 244 237 229 233 255 270 249 223 244 251 229 249 262 272 285 270 213 198 225 208 223 203 214 207 189 232 209 198 197 179 227 185 193 244 228 207 203 200 203 221 190 207 243 241 205 212 205 210 229 209 233 161 257 237 205 116 127 146 74 40 132 5 341 284 153 165 136 358 355 158 164 158
283 301 255 218 211 215 235 251 251 254 251 232 229 235 236 243 229 226 229 243 226 245 258 274 234 228 252 236 245 257 263 273 271 237 216 220 205 222 217 193 194 217 224 203 178 217 201 218 212 221 263 232 225 222 200 232 189 206 210 239 254 228 224 219 197 225 222 170 206 187 173 143 159 184 157 183 151 214 207 202 210 232 164 151 203 202 151 163
312 256 292 317 276 216 232 221 235 250 259 253 261 256 249 237 242 204 187 237 227 242 245 244 248 233 214 236 246 246 256 272 278 280 251 231 205 211 217 209 195 191 59 153 191 225 225 211 218 194 213 257 257 244 228 230 244 198 211 220 236 257 242 232 231 232 161 171 218 174 177 169 191 198 200 202 175 175 170 237 305 302 216 187 166 172 169 164
259 293 312 344 309 259 225 222 229 240 243 246 248 241 256 260 242 225 181 228 232 222 246 245 261 260 264 236 232 257 253 253 263 264 263 227 247 228 222 210 207 133 133 218 202 216 228 240 231 220 205 219 246 266 268 253 219 237 227 223 225 224 247 254 238 239 207 199 231 156 175 188 178 207 193 199 204 233 229 194 253 248 200 210 198 188 187 198
300 321 301 345 322 308 303 310 290 258 239 233 239 243 249 252 260 256 243 198 214 228 219 242 233 246 253 252 229 248 257 262 249 282 341 305 268 322 252 200 195 128 185 213 220 198 227 241 245 228 237 218 222 245 250 254 243 219 234 241 232 229 222 231 251 253 242 218 226 214 200 211 212 238 241 255 357 271 327 14 338 269 277 280 296 223 192 193
5 345 321 330 313 299 294 283 264 260 259 237 233 230 242 248 244 233 229 230 201 221 222 231 246 248 239 240 233 230 232 251 292 295 301 328 332 18 313 254 192 186 183 214 227 172 220 224 250 237 222 231 222 216 234 245 254 253 232 236 237 232 239 232 230 237 248 248 236 241 222 203 178 194 255 259 268 213 133 220 259 320 322 295 267 250 225 190
335 317 309 307 307 304 309 290 270 270 249 241 237 236 245 243 261 258 260 216 239 252 232 236 233 247 263 267 254 221 222 185 329 291 323 313 322 351 321 306 249 210 191 200 211 201 184 230 218 231 249 238 242 244 234 236 241 249 252 250 243 233 220 220 233 230 240 241 346 311 271 240 203 203 198 198 229 103 157 182 234 220 238 233 247 266 274 209
328 331 329 315 293 286 283 280 288 280 252 267 259 246 246 251 262 247 250 254 244 228 234 274 254 269 288 278 301 7 340 310 308 317 316 307 300 303 260 256 235 242 232 219 201 226 188 207 226 228 237 241 239 233 233 233 238 236 238 240 241 254 268 250 243 239 239 238 173 217 232 217 261 24 291 317 93 149 207 220 230 323 7 309 304 306 265 283